Flag for Italy Weather past 2 weeks in Trieste, Italy

Now
46 °F

Overcast.


Feels Like: 46 °F
Forecast: 35 / 49 °F
Wind: 2 mph from East

Location: Trieste

Current Time: Jan 29, 2015 at 2:02:00 PM

Latest Report: Jan 29, 2015 at 1:00 PM


Visibility: 13 mi

Pressure: 29.59 "Hg

Humidity: 59%

Dew point: 32 °F

Location of TriesteLocation

Historic Weather in Trieste — Graph

°F

Trieste temperature yesterday

Maximum temperature yesterday: 52 °F (at 2:00 PM)
Minimum temperature yesterday: 40 °F (at 7:00 AM)
Average temperature yesterday: 44 °F

Past Weeks' High & Low Weather Summary

 TemperatureHumidityPressure
High57 °F (Jan 17, 12:00 PM)96% (Jan 14, 10:00 PM)30.24 "Hg (Jan 14, 10:00 PM)
Low36 °F (Jan 29, 1:00 AM)33% (Jan 28, 4:00 PM)29.59 "Hg (Jan 29, 1:00 PM)
Average47 °F66%29.96 "Hg
* Reported Jan 14 1:00 PM — Jan 29 1:00 PM, Trieste, Weather by CustomWeather, © 2014

Note: Actual official high and low records may vary slightly from our data, if they occured in-between our weather recording intervals... More about our weather records

Advertising

Trieste weather history for previous 24 hours

 ConditionsComfort  
Time TempWeatherWind HumidityBarometerVisibility
1:00 PM
Jan 29
46 °FOvercast.2 mph59%29.59 "Hg12 mi
12:00 PM46 °FOvercast.3 mph58%29.63 "Hg12 mi
11:00 AM45 °FOvercast.5 mph57%29.63 "Hg12 mi
10:00 AM44 °FOvercast.7 mph57%29.65 "Hg12 mi
9:00 AM42 °FOvercast.2 mph57%29.67 "Hg12 mi
8:00 AM41 °FOvercast.1 mph55%29.69 "Hg12 mi
7:00 AM42 °FPassing clouds.3 mph54%29.70 "Hg12 mi
6:00 AM41 °FPassing clouds.3 mph51%29.74 "Hg12 mi
5:00 AM40 °FPassing clouds.3 mph52%29.73 "Hg12 mi
3:00 AM36 °FClear.5 mph59%29.80 "Hg12 mi
2:00 AM37 °FClear.5 mph57%29.83 "Hg12 mi
1:00 AM36 °FClear.3 mph58%29.84 "Hg12 mi
12:00 AM37 °FClear.3 mph54%29.88 "Hg12 mi
11:00 PM
Jan 28
40 °FClear.5 mph47%29.90 "Hg12 mi
10:00 PM40 °FClear.3 mph51%29.91 "Hg12 mi
9:00 PM41 °FClear.12 mph48%29.93 "Hg12 mi
8:00 PM42 °FPassing clouds.13 mph47%29.95 "Hg12 mi
7:00 PM43 °FPassing clouds.8 mph43%29.96 "Hg12 mi
6:00 PM44 °FPassing clouds.7 mph42%29.96 "Hg12 mi
5:00 PM47 °FPassing clouds.5 mph37%29.96 "Hg12 mi
4:00 PM49 °FSunny.8 mph33%29.96 "Hg12 mi
3:00 PM50 °FSunny.5 mph40%29.97 "Hg12 mi
2:00 PM52 °FSunny.6 mph34%30.01 "Hg12 mi
Weather by CustomWeather, © 2014

See weather overviewHow to use our weather pages